Weather Roundup
Issued by NWS Chicago, IL

Home | Current Version | Previous Version | Graphics & Text | Print | Product List | Glossary On
Versions: 1 2 3 4 5 6 7 8 9 10 11 12 13 14 15 16 17 18 19 20 21 22 23 24 25 26 27 28 29 30 31 32 33 34 35 36 37 38 39 40 41 42 43 44 45 46 47 48 49 50
000
NZUS59 KLOT 101203
HRRLOT

CHICAGO AREA WEATHER ROUNDUP
NATIONAL WEATHER SERVICE CHICAGO/ROMEOVILLE IL
600 AM CST SAT DEC 10 2016

NOTE: "FAIR" INDICATES FEW OR NO CLOUDS BELOW 12,000 FEET WITH NO
SIGNIFICANT WEATHER AND/OR OBSTRUCTIONS TO VISIBILITY.

* THESE STATIONS ARE NOT UNDER NWS QUALITY CONTROL. THEY ALSO MAY NOT
  REPORT WEATHER SUCH AS PRECIPITATION OR FOG.

ILZ005-006-012>014-019>023-101300-
NORTHEAST ILLINOIS

CITY           SKY/WX    TMP DP  RH WIND       PRES   REMARKS
OHARE          MOCLDY    18  12  77 W8        30.50S WCI   8
6HR MIN TEMP:  18; 6HR MAX TEMP:  19;

MIDWAY         CLOUDY    21  11  65 W10       30.52R WCI  10
6HR MIN TEMP:  20; 6HR MAX TEMP:  21; 6HR PCP: TRACE;

AURORA         CLOUDY    19  13  77 SW5       30.51F WCI  12
6HR MIN TEMP:  16; 6HR MAX TEMP:  20;

LANSING*       CLOUDY    20  17  85 W8        30.53R WCI  11
WAUKEGAN       MOCLDY    18  12  77 VRB5      30.48S WCI  11
6HR MIN TEMP:  18; 6HR MAX TEMP:  19;

DUPAGE AIRPORT CLOUDY    18  11  74 W7        30.50S WCI   9
6HR MIN TEMP:  17; 6HR MAX TEMP:  19; 6HR PCP: TRACE;

WHEELING       CLOUDY    18  12  77 W6        30.52R WCI  10
6HR MIN TEMP:  18; 6HR MAX TEMP:  19;

KANKAKEE*      CLOUDY    22  16  77 CALM      30.55R
MORRIS*        CLOUDY    20  15  81 W5        30.53S WCI  14
NORTHERLY ISL    N/A     21  13  71 W8          N/A  WCI  12
$$

WIZ051-052-058>065-066-070>072-101300-
SOUTHEAST WISCONSIN

CITY           SKY/WX    TMP DP  RH WIND       PRES   REMARKS
MILWAUKEE      PTCLDY    19  11  70 W7        30.48R WCI  10
6HR MIN TEMP:  19; 6HR MAX TEMP:  20;

KENOSHA*       MOCLDY    18  12  77 W8        30.48S WCI   8
RACINE*        CLOUDY    17  11  77 W6        30.49S WCI   9
WAUKESHA       PTCLDY    14  10  85 W7        30.47R WCI   4
$$

INZ001>003-010>013-019-020-101300-
NORTHWEST INDIANA

CITY           SKY/WX    TMP DP  RH WIND       PRES   REMARKS
GARY*          CLOUDY    23  16  74 W9        30.53R WCI  13
MICHIGAN CITY* NOT AVBL
RENSSELAER*    NOT AVBL
VALPARAISO     CLOUDY    21  14  74 SW9       30.51S WCI  11
$$

LMZ740>746-101300-
SOUTHERN LAKE MICHIGAN

STATION/POSITION TIME  SKY/WX   TEMP WIND        PRES    VSBY
                                AIR  DIR/SP/G
                 (UTC)          (F)  (DEG/KT/KT) (MB)    (MI)
HARRISON CRIB    NOT AVBL
BURNHAM HARBOR   1200            21  250/ 10/ 11   N/A
CALUMET HARBOR   1130            20  230/  9/ 12 1032.6R
BURNS HARBOR     1140            22  230/ 10/ 16 1033.5S
MICHIGAN CITY    NOT AVBL
$$

ABBREVIATIONS USED IN REMARKS
   TC - TEMPERATURE IN CELSIUS
  WCI - WIND CHILL INDEX
   HX - HEAT INDEX
  VSB - VISIBILITY
$$




USA.gov is the U.S. government's official web portal to all federal, state and local government web resources and services.